GFSSW_250_rhum_042.txt.gz
RH
26 52 74 93 82 89 84 87 84 97 77 90 100 97 85 83 100 89 62 55 53 54 36 36 32 37 20 15 14 22 27 29 21 20 29 44 54 49 33 23 14 13 14 16 36
37 39 77 74 71 78 96 100 100 80 93 90 93 79 85 93 87 60 52 51 58 53 33 36 32 32 18 16 14 25 31 32 25 29 62 78 72 69 53 30 21 22 27 18 39
64 76 75 69 53 76 65 100 100 96 94 89 77 86 88 88 68 61 64 47 57 45 45 39 44 26 18 16 17 30 30 28 29 51 99 79 90 98 68 37 46 37 36 29 57
45 86 99 84 95 98 100 100 96 100 100 93 70 80 100 77 46 60 70 70 56 48 48 46 40 24 19 17 21 40 36 35 49 95 82 96 99 94 66 52 30 37 56 66 67
37 40 98 100 90 74 97 94 63 97 100 98 100 100 93 54 50 54 82 80 64 54 54 48 36 24 19 19 24 46 45 57 77 94 100 98 92 79 95 87 75 95 81 80 77
40 41 44 100 100 100 99 82 90 67 85 100 100 100 64 52 73 98 84 65 68 59 59 49 31 28 19 21 25 49 67 83 96 97 97 100 87 100 100 94 100 100 100 98 99
44 52 39 51 100 100 100 100 94 100 99 100 100 94 58 93 100 100 79 74 76 67 60 42 38 31 22 24 29 47 79 93 100 100 90 96 97 100 94 77 99 100 98 94 90
62 60 58 48 65 58 79 100 100 100 100 100 94 83 69 92 100 90 74 64 81 63 64 41 46 32 23 25 32 45 75 96 100 100 96 97 98 88 97 83 100 87 100 100 85
54 65 52 47 48 48 46 51 64 93 100 100 100 100 99 98 95 75 68 67 75 77 63 54 47 32 23 26 40 44 64 83 90 100 94 100 99 88 100 100 97 91 100 99 100
75 73 70 48 49 60 48 53 49 46 96 94 91 94 100 100 96 99 74 76 83 86 64 78 45 38 27 27 37 50 52 80 86 100 100 98 73 92 88 100 100 100 100 100 100
55 78 59 52 56 54 100 80 91 48 70 100 100 100 100 100 100 100 64 73 79 100 85 87 37 44 30 28 31 56 55 59 76 88 100 98 87 77 67 85 100 100 100 100 100
72 80 97 74 96 99 100 100 100 83 57 57 99 98 96 100 100 100 72 55 75 100 100 83 42 47 35 29 31 56 57 64 77 81 74 91 100 92 87 83 72 100 100 100 100
82 95 81 85 100 87 100 100 100 100 83 100 80 95 100 100 100 100 73 59 74 100 100 82 47 51 40 29 33 40 67 57 62 91 100 96 92 97 92 95 95 75 100 100 100
86 97 88 100 100 100 100 100 96 100 88 86 79 82 92 100 100 100 84 72 79 100 100 82 50 58 44 32 32 36 58 71 74 92 99 92 87 97 82 69 98 87 91 86 100
95 97 100 100 100 100 100 100 63 72 86 79 77 84 100 71 100 100 48 57 82 100 100 84 50 63 49 37 33 38 33 68 68 86 99 85 84 86 100 76 70 93 92 95 100
87 82 95 100 100 100 100 100 100 87 56 85 72 70 92 82 100 100 50 48 69 100 100 96 58 70 53 44 35 37 35 38 74 73 91 94 84 79 82 100 97 74 91 100 100
63 59 72 65 94 84 80 75 66 73 55 75 63 87 94 100 100 100 72 60 52 99 100 94 57 73 58 43 37 36 40 35 39 81 72 85 86 95 91 98 79 95 93 80 100
41 53 55 44 72 68 58 58 52 56 51 65 76 100 100 100 100 100 87 78 55 47 100 92 57 69 49 46 40 38 42 37 31 49 88 73 75 95 95 100 100 84 80 88 95
34 36 41 42 45 55 46 40 48 47 63 69 98 100 100 100 100 100 100 85 58 32 99 96 57 68 57 47 44 38 42 36 44 30 66 80 69 62 94 93 95 99 98 89 88
22 29 35 43 47 43 38 41 52 72 71 72 92 71 100 100 100 100 100 87 52 37 89 95 62 66 59 58 50 41 37 42 39 52 32 73 75 55 60 83 98 97 92 100 98
9 15 21 30 36 34 25 42 51 71 84 65 100 87 100 100 100 100 100 98 70 67 53 83 78 76 64 69 54 46 38 35 41 42 51 31 73 63 55 64 84 100 100 92 86
6 6 13 19 25 21 24 48 39 52 78 67 100 93 74 100 100 100 100 100 81 79 67 68 77 85 74 74 66 56 47 39 43 40 53 52 43 54 55 66 75 73 83 87 84
7 6 7 11 15 13 24 36 37 40 55 52 100 92 61 89 100 100 100 100 98 86 89 72 71 78 78 75 78 72 65 47 35 45 37 52 56 43 26 78 79 69 71 84 95
5 6 6 7 6 10 18 24 30 41 51 56 72 100 64 58 100 100 100 100 100 98 100 81 86 77 73 70 93 83 61 55 38 45 35 37 50 59 57 44 40 49 58 68 58
3 5 6 8 6 7 10 20 30 37 48 53 56 87 68 69 100 100 100 100 100 100 98 88 100 86 74 74 94 89 71 66 43 50 41 33 50 47 46 48 63 65 65 66 66
2 4 6 8 8 6 9 14 24 38 47 47 67 89 78 68 100 100 100 100 100 100 100 100 100 90 80 90 80 99 75 72 46 44 54 47 36 41 52 49 41 43 48 56 63
3 4 5 6 7 6 5 12 26 38 49 45 70 88 82 84 100 100 100 100 100 100 100 100 100 92 89 82 74 100 71 66 53 40 51 46 42 37 55 49 38 34 37 50 42

GFSSW_250_rhum_045.txt.gz
RH
36 32 30 29 27 20 24 36 65 74 72 73 81 100 89 72 73 88 74 67 59 46 40 32 34 25 36 38 20 16 13 21 22 30 28 23 22 21 19 20 17 15 14 78 54
40 32 24 25 28 24 25 27 78 72 73 82 86 100 93 93 79 91 76 54 52 44 40 32 32 32 48 28 20 16 15 23 27 30 33 43 49 54 40 23 62 16 15 21 44
46 35 29 31 41 61 81 76 76 55 62 77 100 99 100 93 93 98 78 70 54 51 55 36 35 46 50 25 19 17 24 30 41 48 56 73 86 97 53 100 100 100 22 22 43
43 62 31 32 31 78 80 84 94 100 100 100 100 98 99 100 98 99 68 58 56 79 68 42 54 58 40 26 21 18 33 38 54 95 94 88 81 80 78 100 100 100 46 67 35
63 60 45 36 31 40 87 100 100 92 98 100 90 86 88 100 100 97 61 57 74 89 79 61 54 60 37 25 23 19 38 56 84 87 88 92 76 85 57 87 96 76 100 88 93
72 82 71 35 32 37 47 100 100 100 100 91 74 68 90 100 100 100 62 74 98 98 52 34 68 54 43 27 25 20 40 64 96 94 83 82 92 92 65 43 73 100 100 100 100
30 60 64 46 38 41 44 54 100 100 100 90 69 84 93 100 100 69 60 100 100 72 44 50 69 54 51 29 28 21 41 77 80 81 85 94 99 90 99 80 100 100 100 100 86
30 33 56 68 60 46 51 53 99 100 100 100 100 94 79 99 84 86 64 61 68 64 62 69 76 76 43 31 30 22 44 89 94 94 81 100 100 84 94 100 99 97 100 99 71
37 29 51 65 96 58 68 58 75 76 64 66 71 85 99 94 73 69 81 75 78 74 61 80 98 96 45 32 31 25 50 78 71 100 90 90 96 89 100 100 88 88 100 87 95
54 32 55 70 80 74 57 58 71 55 51 50 40 42 68 70 90 98 99 100 100 56 58 66 87 98 48 33 36 27 46 62 77 100 100 100 87 100 98 88 100 92 100 85 100
93 62 41 44 100 100 80 61 69 62 55 65 75 45 66 75 100 100 100 100 100 45 50 62 100 100 51 36 40 30 47 65 72 82 100 100 73 62 70 80 100 100 100 95 100
100 99 72 37 42 68 77 73 70 75 100 92 98 89 60 73 100 74 100 100 78 50 58 64 99 100 54 40 49 33 29 66 64 74 78 98 74 89 64 66 100 98 100 100 100
100 100 97 73 43 57 65 69 72 70 85 100 100 100 95 98 98 100 100 97 100 74 63 75 100 100 55 39 47 31 33 42 72 66 69 87 80 78 86 67 80 75 100 100 100
100 100 75 59 49 44 47 49 84 57 84 100 100 100 100 93 80 82 100 99 60 40 48 77 100 100 68 40 46 34 33 26 56 72 66 71 99 84 71 78 90 76 100 100 100
64 68 58 99 81 84 48 56 73 74 66 99 100 100 100 100 92 70 88 92 100 48 40 57 95 100 91 44 49 35 31 32 25 64 76 71 70 86 88 86 71 78 93 100 100
55 57 94 78 100 100 91 57 50 95 89 42 100 100 100 100 74 66 64 84 100 65 40 39 66 100 99 45 47 45 34 33 31 32 77 78 74 76 88 99 100 87 81 91 83
100 100 97 100 95 100 100 97 59 75 73 100 100 100 100 100 98 83 74 80 94 84 60 53 38 85 100 47 46 55 37 33 34 33 33 74 81 79 81 89 83 96 94 82 83
100 84 100 100 100 78 84 72 83 100 100 92 100 100 100 100 97 82 68 53 100 92 87 64 51 43 100 64 46 61 48 36 34 34 34 30 55 84 75 66 80 100 75 81 96
42 51 48 70 99 95 81 78 71 79 100 100 100 100 100 100 88 70 61 50 100 100 93 89 54 36 85 81 55 65 59 46 36 35 33 31 30 46 72 68 66 78 88 83 80
26 28 38 51 59 75 84 67 64 90 82 80 94 90 98 100 82 66 67 80 100 100 100 99 53 39 85 72 68 70 66 60 45 44 32 34 32 32 51 61 66 61 65 82 98
15 18 23 29 40 44 29 44 52 60 58 56 71 74 79 84 72 53 53 100 100 100 100 100 75 53 46 63 74 70 68 73 51 47 39 33 34 37 41 42 61 61 57 58 61
7 9 15 17 21 21 18 38 56 51 54 45 62 67 69 76 57 48 57 100 100 100 89 100 74 60 68 59 87 78 50 66 66 50 44 32 34 28 37 51 40 59 62 61 73
7 7 8 8 10 13 16 24 28 29 38 44 49 58 86 86 59 61 94 100 100 100 100 88 96 76 69 69 87 88 63 48 70 60 48 38 34 31 30 46 59 49 52 69 80
5 6 6 6 7 6 9 12 18 22 26 41 59 74 86 82 59 80 100 100 100 100 100 100 100 80 100 95 60 100 84 58 69 65 48 46 35 33 33 36 48 52 58 56 45
3 4 5 7 7 9 10 8 11 17 23 38 64 78 76 87 90 97 95 100 100 100 100 100 100 100 90 94 72 99 95 79 65 66 52 48 43 32 35 34 31 45 50 45 52
3 4 6 10 9 6 7 7 8 10 17 30 58 77 78 76 74 100 100 100 100 99 100 100 100 100 78 96 81 100 99 82 78 70 56 50 53 39 33 36 34 31 43 48 37
2 5 5 7 9 5 6 10 10 9 10 21 40 68 64 67 66 93 100 100 100 97 100 100 100 100 100 100 100 100 100 75 95 87 66 58 62 47 40 39 39 36 35 43 54

GFSSW_250_rhum_048.txt.gz
RH
35 33 34 37 49 52 46 35 26 23 22 20 20 33 61 64 70 90 78 60 76 49 81 75 57 40 41 44 25 37 19 12 10 14 19 26 26 100 100 86 85 100 98 98 87
36 35 34 38 38 33 30 26 23 24 25 29 32 41 45 61 66 100 75 97 62 82 86 68 45 48 62 34 36 30 15 13 15 20 32 42 40 90 98 100 94 100 100 92 66
41 35 38 37 41 37 34 26 26 32 51 61 82 70 58 63 100 100 100 75 73 99 87 48 65 79 33 34 41 23 18 17 24 42 48 55 54 82 100 100 100 99 100 90 97
44 40 39 38 43 41 40 32 32 40 52 64 81 74 92 100 100 100 73 53 100 100 53 70 100 57 33 50 37 23 20 22 34 59 61 49 56 90 100 94 100 100 100 100 100
53 52 52 51 45 43 36 42 36 30 64 100 100 97 78 92 89 64 84 81 100 82 60 100 86 45 42 49 46 24 22 27 39 61 61 86 80 76 71 76 100 100 98 100 83
58 68 72 48 52 33 40 48 39 31 40 94 94 60 45 53 69 67 63 100 98 63 100 63 37 42 81 69 60 27 23 26 46 85 94 100 100 91 100 61 78 92 100 89 69
75 83 97 74 51 32 35 58 42 34 34 74 100 100 78 58 72 66 69 79 67 35 38 48 58 40 100 76 63 29 25 31 61 63 86 100 100 100 67 86 40 76 84 67 60
94 92 100 100 95 47 33 41 49 42 35 44 89 100 100 100 75 53 51 54 44 48 89 82 38 41 48 100 59 30 28 32 49 58 78 100 75 90 77 100 47 98 93 68 70
100 100 100 100 100 100 48 48 44 69 50 41 75 96 98 87 76 60 32 35 85 68 89 94 40 39 83 99 70 30 31 28 57 57 82 100 100 100 100 61 65 100 99 64 87
100 100 100 100 100 85 57 40 54 70 50 44 64 70 56 48 45 42 35 97 100 98 100 75 41 42 71 100 70 30 30 22 54 83 64 82 100 100 100 74 86 100 100 87 78
100 99 100 100 100 100 63 43 36 67 58 54 60 60 52 54 38 46 63 100 100 100 97 47 41 41 67 100 69 32 34 26 35 69 75 84 56 63 100 100 64 76 100 82 100
100 100 100 100 100 100 79 58 41 49 73 75 58 73 54 74 48 48 54 100 97 100 100 100 36 27 57 100 72 38 35 30 25 61 60 100 63 72 100 82 65 73 96 100 100
85 95 100 100 100 100 100 91 64 40 42 87 85 68 82 92 100 75 89 97 100 96 100 91 34 24 30 94 96 74 32 33 27 33 61 64 97 83 60 53 88 100 79 100 100
58 81 81 100 100 100 100 100 97 65 39 45 64 69 69 100 100 100 100 95 72 100 87 99 81 26 26 48 96 77 31 31 30 26 45 66 75 95 70 66 81 100 66 100 96
56 58 59 82 99 100 100 100 100 100 42 42 49 68 66 71 100 100 100 100 72 56 81 100 80 45 36 28 60 82 46 28 30 31 30 45 68 66 60 51 63 94 72 100 89
68 100 76 54 90 100 100 100 100 100 72 59 66 77 61 96 100 100 100 100 82 54 70 88 78 80 53 38 32 99 80 28 31 29 33 33 46 64 67 55 59 68 72 100 100
100 100 86 58 87 94 100 100 100 93 66 45 49 76 100 94 100 100 100 100 98 79 75 81 48 83 95 54 37 41 79 42 30 32 36 33 36 36 76 63 60 58 60 81 100
99 80 83 63 99 71 75 93 81 92 78 76 52 55 99 100 100 100 100 100 100 100 94 83 77 98 81 87 44 33 69 62 37 26 33 34 35 36 52 40 67 69 55 71 69
90 100 100 90 100 100 93 46 44 58 78 100 100 58 48 81 100 100 100 100 100 100 91 84 80 84 96 100 60 36 58 57 46 36 30 32 33 34 46 42 52 69 70 71 59
53 47 97 96 100 100 100 94 97 84 82 97 100 93 93 60 55 100 100 100 100 97 88 74 83 86 100 100 80 43 44 48 43 52 41 30 31 32 33 47 45 41 62 64 63
37 40 49 50 59 62 72 100 100 100 99 91 100 100 100 100 99 100 100 100 100 100 92 92 89 63 88 100 99 57 47 55 52 58 57 43 28 35 36 29 40 44 40 42 51
18 20 27 29 32 30 36 56 81 100 94 78 71 99 100 100 100 100 100 100 100 100 100 87 91 58 79 100 100 82 50 54 60 69 59 55 43 31 34 31 29 36 48 41 41
9 11 15 15 17 19 24 28 33 48 41 57 67 66 82 100 100 100 100 99 99 100 100 81 96 84 97 99 100 100 68 65 74 75 75 58 52 42 30 37 32 30 33 48 49
8 8 8 7 10 12 17 19 23 26 28 45 57 69 76 93 100 100 97 100 90 100 99 82 100 78 87 100 100 86 100 74 84 79 78 74 67 50 36 34 39 33 30 30 30
5 6 8 8 9 10 8 10 12 15 18 25 28 33 49 72 98 99 89 87 84 100 96 77 76 100 100 100 100 100 100 86 100 91 76 78 67 56 45 38 39 39 31 31 30
4 4 8 8 10 8 9 9 9 9 10 17 20 29 33 44 70 76 77 80 78 100 100 68 64 55 84 100 100 100 100 100 84 60 99 92 79 59 63 48 40 42 36 32 31
4 7 7 13 15 8 10 15 13 12 9 9 13 23 34 39 54 58 64 69 76 89 86 64 58 59 79 100 100 100 100 100 93 87 100 92 90 69 68 60 53 46 41 35 31

GFSSW_250_rhum_051.txt.gz
RH
42 80 100 100 79 69 55 34 32 42 40 35 27 21 19 18 19 24 26 51 64 69 64 44 80 71 72 60 86 36 26 19 12 11 16 22 30 34 93 93 84 100 100 100 99
60 56 97 100 100 68 38 30 27 27 30 27 26 22 19 24 39 47 34 56 92 99 67 56 73 84 57 100 70 25 29 16 14 14 21 36 77 100 100 100 100 100 99 94 74
42 56 99 100 95 73 42 34 33 30 33 33 25 22 28 42 66 80 94 99 100 82 47 98 100 63 99 79 34 44 25 18 15 22 26 35 92 98 98 100 100 96 100 87 100
61 62 52 75 88 53 46 38 32 36 38 36 24 23 35 62 53 97 99 100 96 50 100 100 99 87 82 32 95 58 34 20 19 35 33 53 71 100 100 100 98 93 64 70 74
90 79 86 61 58 48 44 39 41 49 40 29 38 29 40 66 45 61 67 78 58 67 100 100 46 44 30 36 42 79 26 23 28 35 47 99 100 100 100 100 99 100 94 71 55
98 86 88 97 90 53 47 46 48 55 44 33 36 32 37 55 72 43 46 54 48 73 58 37 28 32 35 30 67 73 45 26 63 49 42 83 100 100 100 100 100 98 73 84 53
100 95 91 96 100 71 55 60 60 58 46 35 37 40 32 61 99 72 62 57 49 38 41 23 41 83 42 30 92 92 37 24 64 58 60 56 70 74 100 77 73 93 91 76 65
100 100 97 83 100 96 59 74 87 88 72 38 34 38 36 31 100 100 65 47 38 30 21 64 100 90 35 34 94 97 29 23 32 64 72 63 84 66 71 82 96 79 98 56 61
100 99 92 65 94 100 100 91 92 99 99 77 40 44 39 33 72 100 85 52 26 89 100 63 100 38 34 34 95 97 38 26 25 46 54 56 70 57 88 100 99 90 100 96 83
100 100 100 100 82 88 100 100 100 100 100 99 67 43 49 42 42 83 62 44 35 60 100 91 96 94 35 28 100 93 65 30 25 25 53 67 98 100 100 77 100 100 100 82 71
100 100 100 100 100 92 69 90 100 100 100 93 72 38 45 42 45 50 45 39 40 66 94 90 52 100 21 34 40 98 60 36 26 25 28 61 89 100 100 100 48 76 100 60 89
100 100 100 100 100 100 99 93 92 100 100 89 75 42 42 50 48 54 42 54 50 44 100 88 58 83 26 33 36 65 47 56 32 27 22 29 57 66 100 100 73 57 98 90 100
100 100 94 100 100 100 100 100 90 91 100 98 90 48 56 40 62 51 53 74 79 42 51 66 64 98 44 31 42 36 37 93 46 30 27 21 36 42 68 73 100 73 60 76 100
100 99 100 100 100 100 100 100 100 100 100 100 96 65 46 44 47 64 75 85 100 86 63 93 87 82 61 70 51 44 44 49 41 36 29 27 23 48 73 67 75 92 100 71 87
100 100 100 100 100 100 100 100 100 98 100 100 88 94 60 44 51 53 67 69 98 100 89 98 58 57 43 63 89 46 44 42 38 37 31 29 28 24 47 57 55 83 68 83 89
100 99 99 100 100 98 97 100 100 99 92 99 100 100 100 78 55 53 44 67 84 100 100 100 70 54 32 36 51 96 55 42 31 47 34 29 29 28 27 27 57 61 50 92 77
100 100 89 90 84 82 71 60 85 80 87 100 100 100 100 100 49 61 46 56 80 100 100 92 94 89 62 44 55 59 70 52 39 36 36 34 34 29 28 28 51 70 57 56 69
100 100 100 100 100 94 94 72 59 65 57 67 100 100 100 100 100 88 75 54 86 100 100 100 99 100 83 57 84 78 100 96 48 35 39 36 40 34 29 28 27 35 56 67 58
79 94 90 100 100 100 100 83 100 67 66 64 79 100 100 100 99 99 66 99 91 99 100 100 100 100 94 69 60 77 91 96 77 46 33 31 51 44 38 30 25 25 24 45 62
82 100 100 100 100 100 100 100 100 100 100 91 65 97 100 100 98 71 74 81 100 98 100 100 100 100 94 75 66 100 66 100 93 67 41 30 45 64 45 36 30 29 29 25 24
48 44 99 100 100 97 76 100 100 100 100 100 76 76 100 100 100 98 79 66 86 100 100 100 100 100 93 84 95 100 77 100 88 86 45 42 58 65 63 42 34 31 30 34 36
25 27 48 60 62 89 100 100 100 100 100 93 94 68 82 100 100 98 100 100 76 75 89 100 100 100 100 82 100 62 60 100 100 78 53 60 45 45 58 52 37 34 31 28 29
18 22 25 24 22 40 80 89 90 92 97 100 80 90 100 81 58 69 80 100 100 94 69 100 86 97 97 90 91 83 94 100 100 60 88 80 71 57 48 54 39 35 31 32 27
12 15 15 18 20 23 28 40 50 60 58 72 99 98 95 99 70 57 59 82 100 100 100 100 100 100 100 100 91 100 96 100 100 49 100 100 89 56 50 62 52 42 36 32 34
7 7 9 10 14 14 17 21 22 24 33 47 52 99 92 100 100 93 80 91 94 100 100 100 100 100 100 100 93 85 98 76 72 41 96 100 100 72 59 74 57 50 45 35 35
7 9 10 10 9 8 8 12 17 19 17 19 26 56 83 63 79 100 100 99 100 99 100 100 100 100 100 100 100 91 92 77 97 36 76 100 100 89 68 83 74 60 51 52 34
7 8 8 9 11 10 14 16 14 10 10 13 17 25 28 30 44 62 88 100 100 95 100 100 100 100 100 100 100 85 100 100 100 92 38 100 100 100 82 75 81 78 77 76 59

GFSSW_250_rhum_057.txt.gz
RH
72 69 65 50 48 44 46 40 35 26 33 35 31 90 100 94 86 65 23 24 24 20 21 28 41 63 93 90 85 81 89 90 70 31 23 16 12 33 41 82 64 28 100 100 100
56 50 53 52 52 42 40 35 34 34 28 35 34 54 100 100 82 46 28 26 23 21 24 56 93 100 95 65 78 100 91 50 29 33 25 15 22 32 59 100 75 19 97 100 100
42 53 45 43 47 42 36 33 32 30 28 27 40 45 100 96 87 48 32 26 27 22 24 45 96 100 84 80 100 68 33 23 53 35 18 20 40 63 81 92 84 29 99 100 100
49 31 39 45 40 38 37 31 33 31 33 30 40 57 77 100 95 39 39 34 26 26 27 45 59 88 84 84 62 38 23 61 41 20 20 24 58 94 74 74 94 62 100 100 100
29 29 26 23 27 31 28 32 37 41 36 36 49 64 84 99 78 41 44 42 28 26 32 44 42 54 61 74 45 40 26 75 27 29 26 25 54 100 100 93 98 84 100 100 100
23 24 22 20 21 21 27 29 38 47 40 37 58 69 81 84 48 46 44 45 34 27 29 42 55 61 56 43 60 28 41 53 43 34 25 42 62 100 100 97 79 85 88 100 100
17 21 21 20 22 22 25 41 63 60 55 46 54 73 77 74 46 49 46 52 45 32 27 58 65 60 45 91 74 30 41 26 62 47 24 22 71 100 100 95 94 89 78 95 100
19 20 19 19 23 28 45 86 69 69 76 54 63 90 100 74 54 51 51 64 60 38 28 54 76 46 66 65 59 33 24 26 61 33 26 21 31 54 100 79 71 69 73 71 94
21 21 25 51 57 98 100 100 96 80 85 64 68 100 100 100 73 59 54 66 80 54 26 34 92 51 56 50 39 33 24 24 31 36 26 25 24 41 90 85 54 46 36 47 57
23 26 41 76 100 100 100 100 96 82 64 58 95 100 100 100 85 66 65 70 98 65 28 33 90 64 97 64 41 29 27 25 28 30 35 26 28 25 56 70 53 48 36 46 31
36 44 99 100 100 100 100 100 93 65 61 98 99 100 100 100 100 73 82 84 100 78 36 48 79 58 98 50 29 28 32 30 29 30 30 31 31 24 25 60 73 47 65 60 76
37 84 100 100 100 100 100 100 100 87 85 100 95 100 100 99 94 96 98 100 100 92 33 64 72 65 97 56 30 33 41 31 22 35 30 36 33 30 25 27 50 73 96 69 73
50 86 100 100 100 100 100 100 99 76 100 100 94 100 100 92 100 100 100 100 100 82 31 33 64 69 83 79 40 39 58 30 29 26 39 43 31 29 27 26 23 42 69 84 71
66 91 100 100 100 100 100 100 100 87 94 100 92 100 100 100 93 100 100 100 100 80 43 27 47 58 52 68 60 61 59 33 36 37 37 64 42 39 32 27 26 27 50 57 52
58 100 100 100 100 100 100 100 100 97 91 100 98 85 92 97 100 100 98 99 100 89 46 40 30 54 77 100 91 77 77 43 52 41 36 56 54 61 40 28 26 26 28 47 50
53 88 100 100 100 100 100 100 100 94 100 80 78 58 90 96 89 100 96 89 96 87 69 45 34 38 64 73 99 92 100 72 64 54 35 40 50 65 45 28 26 24 26 28 47
48 72 100 100 100 100 100 100 100 88 100 100 100 100 85 77 100 100 100 100 100 100 100 86 50 30 39 59 70 99 100 96 75 62 39 46 66 87 47 29 28 28 28 27 26
35 57 94 93 100 100 100 100 100 98 85 100 100 100 100 100 100 100 100 100 100 98 99 99 80 53 61 61 59 61 61 100 90 75 57 44 88 72 66 41 27 26 27 27 27
27 44 76 77 90 96 96 100 98 85 98 86 94 100 100 99 100 100 90 100 100 87 99 100 100 85 49 42 42 54 78 85 66 99 84 42 63 65 80 56 44 43 26 29 27
23 31 48 52 82 76 79 100 100 95 94 100 100 88 100 100 81 100 100 100 100 100 90 75 69 79 68 49 33 49 98 62 88 100 99 46 47 94 72 69 65 58 54 43 29
19 26 38 36 50 79 85 84 88 98 100 100 99 96 88 100 100 100 100 100 100 100 90 95 74 70 49 44 55 59 90 100 100 100 100 70 50 46 73 50 74 75 70 64 52
16 20 31 32 35 68 91 97 98 98 100 92 100 94 100 91 100 100 100 100 100 100 100 100 100 100 87 80 91 88 68 76 100 100 100 74 61 52 51 52 52 79 95 73 53
14 18 25 20 27 46 72 100 100 100 93 81 82 90 100 90 67 96 100 100 100 100 100 100 100 92 87 75 80 79 77 100 100 100 100 91 99 67 51 58 57 68 96 82 67
12 14 18 17 25 37 54 80 98 100 100 100 98 87 76 83 92 77 71 100 100 100 100 100 84 100 100 100 100 92 95 100 100 100 100 99 96 65 55 58 50 49 100 100 87
11 12 16 19 26 32 42 88 99 100 100 100 100 100 98 96 91 66 68 75 86 83 87 79 77 100 94 100 100 98 85 97 83 98 92 100 100 94 71 60 58 48 97 100 100
11 14 16 18 20 23 27 34 46 76 94 100 100 100 100 100 100 100 100 100 96 83 69 100 96 94 100 100 100 100 96 100 100 100 100 100 100 100 94 74 62 52 48 85 100
8 10 12 16 17 18 23 26 34 44 76 98 100 91 97 100 96 100 100 100 100 100 100 100 100 100 77 100 100 100 91 92 100 100 100 100 100 100 100 88 71 59 48 58 100

GFSSW_250_rhum_060.txt.gz
RH
74 74 68 92 74 97 78 66 51 52 52 49 45 38 37 32 28 32 34 59 63 63 30 25 23 20 22 88 99 92 65 84 91 44 38 26 28 20 15 18 21 28 79 100 100
26 26 29 25 28 50 68 85 80 65 53 55 47 42 35 32 30 28 38 41 57 69 29 26 24 23 25 94 100 83 74 87 42 30 40 37 21 16 18 20 40 62 95 100 100
36 33 31 29 30 30 28 47 60 59 59 54 46 46 40 32 31 30 28 42 73 53 31 31 24 24 28 51 85 88 77 50 30 45 46 24 17 18 22 33 50 94 93 100 100
54 45 43 40 32 31 33 32 33 32 35 33 28 34 34 36 37 38 32 50 74 55 37 32 23 26 35 47 60 55 66 31 33 59 25 23 16 18 46 55 69 100 98 100 100
56 46 46 42 31 28 33 30 23 22 28 28 25 29 33 34 40 34 50 51 76 62 38 35 27 31 35 48 53 46 45 31 62 34 24 22 18 21 82 76 100 90 69 100 100
37 38 35 24 22 22 22 30 25 24 26 29 26 26 27 48 41 34 64 53 68 51 38 39 33 29 48 48 56 39 44 24 32 28 26 23 21 27 75 94 97 96 76 90 100
20 24 20 18 18 18 18 21 28 24 26 26 26 25 26 95 66 48 70 53 64 47 43 46 41 30 55 65 47 39 50 25 27 28 24 24 24 26 42 73 91 81 86 66 99
23 23 22 15 16 15 14 20 27 25 28 27 28 27 44 97 79 60 63 73 61 48 40 47 54 30 40 70 57 49 47 23 27 28 28 26 25 24 28 55 74 56 60 75 75
25 23 20 17 17 16 16 17 28 32 31 38 40 43 99 100 90 68 77 76 57 50 44 57 74 39 26 55 55 34 35 25 28 27 28 28 26 25 24 38 84 75 75 62 58
24 20 19 18 18 18 19 23 42 45 64 68 94 99 100 100 93 73 99 85 68 58 50 73 85 52 30 77 59 50 38 26 26 28 26 25 24 29 25 24 35 56 83 65 39
28 20 19 20 22 20 23 24 54 100 100 100 100 100 100 100 97 76 100 100 75 63 60 78 99 68 45 87 56 66 45 27 30 28 29 29 23 30 36 27 25 26 44 52 50
27 21 22 22 24 26 30 41 100 100 100 100 100 100 100 100 100 78 99 100 85 73 67 63 100 64 60 97 64 64 60 30 34 27 38 35 25 38 45 31 26 21 25 42 56
25 22 22 24 28 34 47 100 100 100 100 100 100 100 100 100 100 100 100 100 98 79 85 78 100 65 64 90 88 60 57 33 39 33 47 42 32 28 49 32 27 25 23 31 46
25 22 23 26 30 31 74 100 100 100 100 100 100 100 100 100 100 100 100 100 100 100 100 97 100 67 47 69 79 80 46 57 57 48 53 52 36 28 52 42 27 26 25 22 37
23 22 23 25 31 39 92 100 100 100 100 100 100 100 100 100 100 100 100 98 97 100 100 100 100 65 29 63 70 71 56 69 69 88 63 67 41 34 33 59 30 25 27 25 23
21 20 21 24 30 37 84 100 100 93 94 100 100 100 100 100 100 100 100 95 100 100 75 96 100 70 50 92 52 63 85 95 74 99 100 78 50 52 34 50 40 32 26 26 25
19 19 21 22 23 38 82 100 100 99 100 100 100 100 99 100 100 100 100 90 96 94 100 100 100 93 58 53 37 46 60 70 85 100 100 90 70 87 41 45 48 44 44 41 26
15 15 19 27 24 34 56 88 98 100 100 100 100 87 100 100 100 100 100 97 94 76 99 100 98 98 74 58 34 31 26 51 69 84 100 95 93 76 55 47 46 45 53 57 50
17 16 19 23 25 27 33 67 90 100 100 100 100 97 100 100 86 99 100 80 100 97 76 100 100 100 100 99 65 50 33 37 31 51 100 100 100 100 66 39 44 39 53 66 48
15 16 18 19 23 26 23 52 93 92 100 100 98 100 100 100 100 96 88 100 92 100 100 100 100 100 100 86 76 56 54 41 48 44 100 79 100 100 83 57 46 56 36 50 67
9 10 16 16 20 20 24 46 100 96 98 100 100 100 100 100 95 100 100 100 76 70 100 100 99 92 98 58 85 84 73 65 69 62 60 100 100 100 99 81 67 56 42 37 48
5 7 11 14 16 20 27 37 81 100 100 100 100 100 100 100 100 100 100 98 100 100 99 62 61 100 100 82 93 83 64 56 45 66 60 100 100 100 100 79 88 69 63 49 43
5 6 8 10 13 20 25 51 61 89 100 100 98 100 100 100 99 98 100 98 90 99 99 100 100 100 100 100 86 60 69 89 62 98 100 98 100 100 91 100 85 64 74 64 68
5 6 7 9 14 19 24 43 57 71 74 93 100 99 86 80 92 85 82 78 86 89 75 76 100 100 100 100 95 65 70 66 62 54 87 82 100 100 84 98 100 74 65 77 100
5 6 7 9 16 20 24 34 54 70 78 69 80 90 98 100 95 91 99 75 74 99 100 100 85 83 100 92 66 62 95 78 52 71 63 83 95 100 99 98 100 100 85 69 100
6 7 8 11 17 18 22 28 37 64 81 100 100 88 79 100 98 100 100 100 99 80 100 100 100 100 100 100 100 100 100 100 100 85 44 79 100 100 100 100 100 100 100 75 75
8 7 8 12 14 15 22 27 37 50 73 84 98 69 86 82 85 100 100 99 97 97 76 68 81 92 99 100 100 100 100 100 80 100 100 77 76 100 100 100 100 100 100 98 83

GFSSW_250_rhum_063.txt.gz
RH
38 34 32 30 28 29 25 27 34 34 35 36 35 33 46 75 81 70 56 53 44 36 29 28 30 40 28 28 24 22 42 98 85 78 57 44 34 32 23 16 15 22 43 81 100
38 30 29 26 27 26 26 29 39 36 36 38 39 38 35 58 53 79 66 65 54 48 35 32 30 48 30 28 23 26 32 69 77 66 44 38 43 28 18 17 19 47 71 99 100
37 37 25 25 31 33 40 45 61 54 50 43 50 48 40 42 53 42 44 38 36 42 37 34 39 45 33 26 24 34 35 60 64 56 29 60 33 20 18 17 29 58 90 100 100
86 89 88 86 72 74 65 60 45 41 33 43 48 48 46 47 43 42 33 31 32 36 40 35 41 39 38 27 29 43 35 52 57 32 42 36 23 21 17 18 31 56 83 100 100
100 99 98 81 78 70 71 53 36 34 27 26 32 33 43 40 38 30 30 30 28 30 40 44 42 46 38 30 29 34 37 61 54 25 26 24 24 21 18 18 30 58 67 99 100
91 86 90 55 51 45 42 37 35 26 26 23 25 26 27 37 33 32 32 32 33 28 40 42 50 46 37 31 32 45 46 55 49 24 22 24 24 22 19 19 37 57 75 80 100
62 62 48 41 38 31 25 22 22 22 22 21 21 22 26 32 36 31 34 31 30 29 52 54 60 44 38 37 28 52 58 51 57 23 24 23 25 23 20 20 37 61 65 64 98
54 47 37 35 28 27 22 20 20 19 15 14 15 17 22 30 31 32 32 34 34 30 50 48 68 43 43 44 25 31 76 77 53 23 24 23 24 26 22 23 24 50 60 50 83
47 44 32 28 24 22 25 22 18 15 14 14 13 16 22 31 36 35 35 40 40 44 64 57 61 50 45 46 40 27 99 55 43 26 23 24 24 31 25 25 23 25 49 42 68
72 52 36 23 23 21 19 20 18 15 17 16 15 15 25 36 64 52 61 68 66 55 66 67 61 57 50 43 55 36 64 62 61 35 24 31 27 41 29 23 25 22 24 40 34
47 47 29 20 19 19 21 21 18 19 18 19 20 24 28 54 98 100 90 100 96 76 78 84 58 70 53 56 71 37 50 64 68 38 25 38 34 36 36 25 24 24 23 22 36
36 37 23 19 20 18 24 21 20 24 24 23 21 52 56 96 100 100 100 100 100 97 85 81 75 81 42 94 79 44 53 48 57 43 30 43 42 34 39 31 23 23 23 22 24
33 23 22 20 21 18 23 22 24 28 27 33 38 96 100 100 100 100 100 100 100 90 94 100 95 72 42 92 96 46 58 41 47 53 40 44 51 37 40 36 26 23 25 24 23
30 24 20 23 20 18 23 22 25 38 46 80 85 100 100 100 100 100 100 100 100 92 92 100 100 83 52 96 100 59 28 65 87 52 48 58 59 51 40 40 37 31 27 36 24
26 22 20 23 21 17 23 25 26 42 58 100 100 100 100 100 100 100 100 100 100 100 74 100 100 100 65 100 97 80 47 92 89 82 52 68 72 83 50 48 42 36 38 45 30
20 20 20 20 19 18 20 25 23 34 89 100 100 100 100 100 100 100 100 100 100 100 93 94 100 100 90 81 100 100 49 79 78 61 74 61 89 93 75 64 39 42 37 38 43
14 15 18 18 17 17 19 23 23 31 98 100 100 100 100 100 100 100 100 100 100 100 100 95 100 100 100 92 100 100 37 57 70 91 100 65 100 96 75 69 52 34 43 40 44
12 14 16 16 14 14 18 20 24 35 98 100 100 100 100 100 100 100 100 100 100 100 100 98 95 100 100 100 100 100 31 26 62 69 84 73 100 99 77 75 85 39 40 38 40
12 12 14 14 15 13 14 15 24 45 87 100 100 100 100 100 100 100 100 100 100 100 100 100 100 100 100 100 100 88 40 42 34 33 49 57 100 100 93 82 95 60 40 41 40
13 13 17 15 15 14 13 15 22 40 89 100 100 100 100 100 100 100 100 100 100 100 94 91 96 95 98 97 98 98 64 43 33 46 65 56 63 100 100 96 94 92 54 41 42
16 15 21 20 17 14 14 19 23 36 75 100 100 100 100 100 100 100 100 100 100 100 100 96 82 77 68 78 96 100 99 88 62 62 69 73 71 92 100 100 100 100 97 61 47
12 15 19 12 10 10 13 21 26 31 70 100 95 87 100 100 100 100 100 86 100 100 100 100 94 95 96 89 92 94 97 83 94 92 91 96 100 100 98 100 100 100 91 81 60
9 10 10 6 6 7 10 20 22 23 55 96 97 96 100 100 88 96 91 100 100 100 100 100 100 90 100 100 90 100 100 98 92 80 95 99 100 100 96 52 97 91 100 100 83
7 10 8 6 7 7 9 15 21 22 34 79 88 100 100 100 88 67 91 100 100 99 100 99 98 100 100 100 100 100 98 52 56 72 61 64 78 100 100 81 81 100 95 100 100
9 9 6 6 6 7 9 13 18 22 24 61 86 83 100 100 76 85 100 100 100 100 100 93 96 77 92 98 100 70 53 32 53 73 52 62 45 78 99 99 76 76 100 100 100
9 7 6 6 6 7 8 11 17 22 23 47 84 65 83 99 100 72 72 100 100 100 100 76 89 98 100 87 60 99 100 100 100 100 90 84 45 42 67 100 100 88 100 100 100
8 6 7 6 6 7 8 12 14 19 23 31 79 77 76 86 95 100 100 73 67 72 95 92 87 98 100 100 100 100 100 100 100 100 100 70 53 58 48 67 61 53 61 49 99

GFSSW_250_rhum_066.txt.gz
RH
65 63 65 64 39 41 46 40 33 27 24 24 22 25 30 32 41 41 41 48 42 48 42 51 61 68 65 46 39 39 31 28 22 26 50 56 44 32 20 21 16 16 22 23 36
58 54 47 35 25 25 26 24 26 25 24 28 32 39 42 44 48 56 50 46 43 48 48 49 50 44 33 42 44 43 33 25 23 35 49 47 47 21 27 18 18 16 43 42 80
80 81 53 42 44 57 65 45 40 45 62 68 54 61 52 61 65 64 61 49 51 51 53 55 48 46 30 45 49 40 33 25 30 43 56 58 30 27 21 19 18 20 60 56 97
82 68 73 100 100 100 100 100 100 100 81 72 61 67 62 51 48 53 55 37 61 62 59 43 42 37 30 49 49 39 34 25 28 42 61 46 30 20 20 19 18 26 61 71 100
100 100 100 100 100 100 100 98 72 70 70 65 51 42 37 36 32 36 47 34 41 67 50 45 38 30 30 48 51 42 33 28 46 39 60 34 24 20 20 19 19 28 66 75 98
100 100 99 99 83 97 91 79 75 56 46 37 36 35 31 26 26 26 34 30 34 48 40 38 32 32 32 41 61 45 31 33 48 36 47 26 22 21 22 20 21 30 60 87 86
78 82 94 91 81 80 69 56 53 44 50 36 32 24 22 20 20 20 23 26 33 35 32 32 29 32 36 49 60 45 37 35 48 36 54 47 24 23 23 22 21 23 50 65 77
69 72 71 69 81 71 58 59 57 48 40 31 22 20 22 18 17 21 24 24 30 30 31 26 26 35 51 56 64 44 44 35 52 58 67 30 24 25 24 23 22 21 34 58 89
68 67 71 55 55 63 61 61 47 29 25 24 18 16 16 16 15 19 25 25 27 29 28 26 29 40 51 68 69 45 45 45 36 68 56 32 28 27 27 26 22 21 20 38 61
69 79 66 48 51 52 46 40 31 29 20 19 16 15 16 15 14 16 22 24 26 32 30 28 33 37 67 82 73 40 58 52 30 67 54 36 33 34 30 26 24 21 22 20 33
80 82 77 53 46 46 44 37 33 26 21 21 18 18 16 17 18 18 26 30 29 32 35 35 32 74 100 62 44 51 67 64 33 82 68 51 36 40 37 29 25 23 21 22 21
83 76 45 46 44 37 31 30 31 20 24 23 18 19 17 20 20 28 84 88 37 40 40 32 49 100 86 58 54 58 68 66 34 90 76 72 42 47 40 35 32 28 25 20 21
93 58 50 44 41 33 27 25 22 22 23 40 17 28 22 24 22 27 65 99 72 72 53 64 100 100 92 64 60 68 82 60 38 100 95 69 45 55 50 42 37 34 32 24 20
55 50 48 42 36 34 27 24 21 21 24 30 22 30 26 29 46 42 100 100 100 99 77 88 100 100 94 76 64 79 76 41 38 100 100 72 44 53 64 52 48 36 32 32 25
55 43 48 38 35 29 26 21 17 23 24 36 35 44 42 68 99 99 100 100 100 100 88 81 100 100 100 100 73 99 42 51 45 100 100 79 47 61 74 84 61 42 30 29 36
47 46 41 34 34 30 22 18 14 22 26 34 46 49 85 100 100 100 100 100 100 100 86 94 100 100 100 98 82 91 42 81 62 79 100 79 62 60 71 85 78 53 48 29 35
43 36 32 35 27 24 16 14 13 20 28 38 64 61 89 100 100 100 100 100 100 100 67 92 100 100 100 96 98 89 68 100 75 69 100 56 77 69 92 85 79 70 54 34 27
36 36 33 28 20 15 12 12 13 20 30 62 76 72 85 100 100 100 100 100 100 100 62 78 95 100 100 90 100 100 100 100 76 42 81 86 100 86 100 81 84 61 66 43 35
32 27 21 18 14 12 12 11 13 18 31 48 92 100 80 100 100 100 100 100 100 100 100 93 100 100 100 100 100 100 100 100 71 47 54 78 100 100 100 100 100 79 46 62 44
17 15 15 13 12 11 11 12 14 17 23 38 81 94 76 100 100 100 100 100 100 100 100 99 94 100 100 100 79 100 100 89 54 37 70 90 100 100 72 76 97 100 66 76 73
14 15 14 13 13 14 15 14 15 18 20 27 52 93 80 88 100 100 100 91 100 100 100 100 100 100 100 100 91 77 100 100 79 59 86 86 100 100 57 57 54 92 100 96 100
14 17 17 16 14 16 20 19 19 20 17 23 37 75 78 78 86 100 100 100 100 100 100 100 99 100 100 100 91 67 85 89 96 59 54 52 86 100 100 90 78 59 100 100 100
15 16 16 14 14 16 18 18 17 21 16 20 25 56 82 99 73 100 100 100 100 100 100 100 89 95 100 100 100 81 98 100 100 100 100 100 100 100 100 100 84 64 38 68 93
11 13 13 10 12 12 12 13 15 18 18 18 22 43 76 83 72 86 100 100 100 100 100 100 100 100 93 99 100 93 82 79 96 100 100 100 100 100 100 100 98 89 67 44 31
11 12 11 11 10 8 7 9 10 13 18 17 19 28 56 78 94 94 100 100 100 100 100 100 100 100 100 99 82 90 80 75 90 92 99 97 93 100 100 100 100 89 99 98 71
9 10 9 7 7 7 7 9 9 9 12 17 19 19 41 77 98 93 94 95 100 100 100 100 100 100 100 100 100 100 97 66 71 78 100 81 69 51 98 100 100 100 69 86 75
8 7 6 6 6 7 7 7 7 8 9 14 19 20 40 63 87 91 96 100 96 96 100 100 98 100 100 100 100 100 100 99 62 63 100 90 90 55 55 96 100 86 79 62 68

GFSSW_250_rhum_069.txt.gz
RH
100 100 100 91 97 86 82 80 66 42 36 47 28 25 25 27 28 34 34 32 29 36 38 40 46 51 45 44 46 42 49 44 40 47 42 30 22 32 34 32 22 16 17 16 14
99 100 100 100 74 75 57 67 61 51 33 28 29 27 48 42 44 38 33 42 53 40 44 53 51 59 57 50 49 46 46 39 45 52 39 25 28 37 28 25 19 18 18 17 15
100 100 100 100 100 99 90 78 54 57 56 51 56 58 75 67 73 46 45 47 71 68 56 70 62 50 57 58 56 54 43 35 44 51 39 25 27 35 26 21 19 19 18 18 16
100 100 100 100 100 98 48 67 100 95 100 88 100 100 91 84 51 43 50 41 48 43 41 41 41 41 76 47 50 52 36 33 53 48 38 26 30 33 22 20 19 20 19 20 38
97 99 88 79 88 74 99 91 100 100 100 100 100 82 70 58 52 45 36 45 41 41 35 39 39 36 49 50 47 57 34 35 57 48 36 32 37 31 22 21 22 20 19 25 62
70 75 98 96 100 100 100 100 100 100 100 97 74 56 35 43 43 37 38 36 32 30 23 24 29 31 35 32 50 53 33 44 62 52 35 37 33 34 27 23 23 22 21 23 64
100 100 100 100 100 98 94 100 84 93 72 55 45 53 56 42 35 28 26 26 19 20 18 19 21 30 34 32 48 44 37 41 73 52 35 43 27 44 26 24 25 23 22 21 63
100 100 95 100 100 100 92 96 95 85 71 59 45 39 38 32 34 27 26 20 14 18 17 17 22 30 35 36 46 41 34 58 67 50 33 45 27 42 26 27 26 22 22 21 48
94 98 100 99 98 100 99 100 99 73 58 44 38 41 35 28 29 26 22 14 15 19 20 21 24 32 36 36 42 32 40 74 77 50 31 40 30 36 28 32 25 24 22 22 25
81 82 74 79 94 74 70 74 90 72 55 45 47 39 37 26 29 19 18 12 16 20 25 26 26 32 30 38 44 39 45 77 97 52 37 36 24 40 34 37 28 26 28 22 22
78 67 71 75 70 90 79 88 95 82 50 49 47 34 31 29 22 15 17 14 16 21 23 34 30 30 38 56 47 36 40 100 95 52 45 52 39 44 40 42 38 29 27 27 20
97 84 83 97 64 70 89 79 66 56 56 51 38 36 33 24 20 15 18 17 19 23 25 42 32 36 61 93 45 27 76 100 88 46 63 51 54 56 38 46 42 38 30 30 26
88 96 100 89 85 69 79 75 72 70 49 49 42 35 30 22 19 18 21 20 20 38 42 30 42 44 100 96 47 41 99 100 72 49 74 57 62 63 49 50 47 45 29 32 30
97 80 95 95 73 78 82 86 80 57 52 42 39 38 28 21 22 24 22 22 30 50 57 33 61 82 100 100 66 65 100 100 60 50 88 81 63 38 49 55 57 56 43 32 35
100 100 94 100 95 79 63 60 55 63 50 30 36 36 27 20 29 32 28 26 52 94 100 44 86 100 100 100 80 99 91 100 60 54 99 100 54 39 61 49 79 73 55 39 30
95 93 100 79 78 69 66 56 45 36 29 33 36 32 25 20 34 31 29 31 73 100 100 88 66 96 100 100 80 97 79 100 55 78 99 100 68 45 74 51 64 88 71 55 34
87 84 85 91 80 76 56 44 34 27 33 35 30 23 23 22 37 40 43 91 100 100 100 82 92 100 100 100 94 92 87 98 58 95 100 99 71 71 64 66 61 74 87 56 47
52 60 60 60 56 51 39 31 24 32 37 28 22 19 25 24 51 52 98 100 100 100 100 88 98 100 100 100 100 100 100 100 82 100 100 76 52 65 52 93 69 61 85 73 44
35 41 43 47 39 37 36 25 32 38 33 21 17 20 25 24 60 76 100 100 100 100 100 92 100 100 100 100 100 98 95 100 85 95 100 76 79 48 82 100 91 80 63 80 70
27 31 36 33 34 31 26 36 39 28 18 17 17 20 25 24 70 97 88 100 100 100 100 100 98 100 100 100 100 100 100 100 78 78 100 100 100 60 91 100 100 100 100 100 96
13 15 21 22 23 23 27 25 18 15 15 16 18 20 26 28 50 100 99 100 100 100 100 100 100 100 99 100 100 100 100 100 100 97 100 100 100 100 66 63 77 96 95 75 97
10 12 14 13 12 15 19 18 16 16 16 15 18 21 22 22 45 98 100 100 100 100 100 100 100 100 86 100 100 100 100 100 100 100 100 100 100 100 58 45 42 76 57 38 45
9 11 12 11 14 16 17 17 15 18 17 17 18 20 20 19 42 89 84 98 100 100 100 100 97 100 87 90 100 100 100 89 97 100 100 100 100 98 97 80 54 77 56 47 42
6 9 12 12 16 15 16 18 18 20 21 20 18 18 17 18 31 77 83 100 100 100 100 100 93 100 77 90 100 100 100 93 93 100 100 100 100 100 100 100 88 60 59 49 40
6 8 9 11 15 15 14 17 18 18 18 18 18 17 15 14 21 63 84 100 100 100 94 100 100 96 98 94 100 100 100 84 95 100 100 100 100 100 100 100 100 100 100 74 46
7 8 9 10 10 12 12 13 14 12 14 15 17 16 14 13 20 59 92 90 100 100 100 100 100 100 100 85 95 100 100 100 100 100 98 100 100 100 100 100 100 100 100 100 95
8 8 8 8 9 9 9 9 9 9 10 12 16 17 15 12 17 39 72 100 100 100 84 88 99 100 100 100 100 66 98 100 100 100 94 100 100 100 100 100 100 100 100 100 100

GFSSW_250_rhum_072.txt.gz
RH
100 100 91 100 100 100 100 100 99 100 100 100 83 72 80 79 62 40 28 28 31 26 43 30 33 38 34 45 46 53 48 51 57 55 46 44 34 44 39 35 22 28 25 16 15
100 100 100 100 100 100 100 100 100 100 91 83 74 80 79 56 45 40 32 35 30 33 38 33 36 32 31 43 48 58 53 51 51 51 54 52 36 43 46 35 23 30 19 17 16
100 100 100 100 100 100 100 100 100 100 100 100 98 89 62 41 37 46 73 68 48 66 96 74 38 28 35 41 42 55 52 46 45 61 47 53 38 49 50 36 27 27 17 18 18
99 97 100 100 99 100 100 100 100 100 100 100 99 98 87 91 90 100 100 100 99 86 82 35 40 32 36 42 43 45 40 40 40 45 44 54 41 62 49 31 33 20 20 21 19
100 100 94 100 100 100 94 90 98 100 100 98 83 82 67 89 100 68 56 72 77 78 48 56 34 35 36 40 40 38 35 40 32 50 52 49 46 67 47 32 31 21 23 24 19
100 98 98 95 100 92 93 87 87 82 95 98 100 100 100 100 98 92 98 99 84 44 42 38 36 29 28 28 26 28 31 31 31 52 50 47 50 64 44 36 26 24 25 24 19
100 100 100 90 100 94 100 89 99 97 98 90 70 100 99 99 93 94 75 52 56 51 33 30 28 21 22 22 23 21 27 41 38 51 44 44 75 63 42 38 24 26 25 22 20
96 100 100 100 100 78 90 100 100 100 100 100 100 100 100 98 91 86 74 67 56 35 26 24 19 17 17 17 20 24 32 43 59 40 48 41 90 61 44 34 28 29 26 26 21
88 85 94 99 100 100 100 100 100 100 100 98 94 98 96 81 78 77 55 41 39 32 24 19 13 16 17 19 20 26 40 50 49 44 51 42 72 54 47 30 31 33 26 26 24
100 93 85 74 80 77 86 89 90 87 92 94 92 87 80 73 71 60 42 40 41 27 20 15 12 14 16 18 26 32 41 50 63 46 41 52 73 43 55 32 36 38 32 27 25
86 93 100 86 97 90 56 71 78 75 78 74 73 74 65 78 61 47 40 41 35 22 19 16 14 16 20 26 28 34 40 60 49 42 34 68 78 43 54 37 38 41 35 26 24
87 80 96 100 100 100 99 90 72 58 62 65 79 69 60 56 44 45 38 39 33 21 18 15 19 26 24 34 34 36 46 56 38 50 55 96 80 47 55 41 43 41 41 29 27
74 75 88 86 82 70 90 85 70 56 71 86 67 65 66 49 58 41 39 34 29 20 16 18 25 24 26 37 33 43 51 53 60 85 98 95 78 57 49 49 43 47 46 35 32
59 75 72 66 67 65 69 75 57 58 69 74 68 75 63 59 53 51 40 34 26 16 18 22 26 25 39 40 43 45 100 99 100 100 100 100 87 60 48 60 42 49 54 47 30
66 71 78 70 80 82 69 72 64 100 100 95 100 100 70 55 49 44 34 31 23 17 22 28 25 29 44 39 52 96 100 100 88 100 100 100 85 64 49 67 45 48 65 61 31
92 99 100 100 100 99 100 100 93 85 87 69 71 71 75 57 49 32 29 29 21 21 26 33 40 58 65 64 95 100 100 98 84 100 100 100 84 74 50 58 51 50 61 79 44
44 60 76 88 100 100 100 97 100 98 96 79 58 79 65 64 42 32 32 26 19 28 33 37 53 93 74 75 100 100 100 88 88 100 100 100 80 86 53 46 88 54 51 67 58
23 27 37 58 67 84 79 81 66 84 90 60 48 71 74 49 34 31 30 21 20 42 95 99 85 100 100 100 100 100 100 92 98 100 100 100 79 98 55 39 100 88 54 60 66
10 16 25 38 38 43 47 42 56 76 70 66 50 56 42 38 34 32 24 18 25 47 100 100 96 93 100 100 100 100 99 100 100 100 100 100 88 88 70 43 94 100 70 68 69
8 9 12 20 27 28 27 33 52 52 46 49 38 44 41 38 28 29 18 20 32 40 100 100 98 100 100 100 100 100 100 100 100 100 100 100 97 100 96 59 58 92 80 94 93
8 8 11 11 11 12 21 35 41 41 37 39 40 40 36 35 24 20 17 23 56 44 100 100 100 100 100 100 100 100 100 98 100 100 100 100 100 100 100 80 60 77 100 100 81
4 7 10 10 8 10 15 23 24 25 27 29 32 36 32 25 18 17 16 28 51 98 100 100 100 100 99 100 100 100 100 100 100 100 100 100 100 100 100 97 76 70 72 100 100
3 5 6 8 9 12 14 14 14 16 16 19 19 21 19 17 14 16 18 29 79 100 100 100 99 100 99 100 100 100 100 100 100 100 100 100 100 100 100 100 100 86 71 58 63
3 4 5 5 8 12 14 15 15 16 16 15 18 19 18 16 15 16 18 25 85 100 100 100 100 100 96 95 100 100 100 100 100 100 100 100 100 100 100 100 100 100 67 45 59
3 4 4 5 6 8 11 13 14 16 18 17 17 19 18 16 15 16 20 25 74 85 100 96 100 100 100 99 100 100 100 100 100 100 100 100 100 100 100 100 100 100 93 59 50
3 4 4 5 6 7 9 12 14 15 15 15 15 16 17 18 17 14 17 22 63 79 90 93 100 100 100 100 98 100 100 100 100 100 100 100 100 100 100 100 100 100 100 100 97
3 3 4 5 6 7 8 9 11 12 14 15 14 16 17 18 20 14 16 30 56 79 86 100 100 100 100 100 100 91 88 91 100 100 100 100 100 100 100 100 100 100 100 100 100

GFSSW_250_rhum_075.txt.gz
RH
100 98 96 85 92 97 100 100 99 100 100 100 100 100 100 100 100 100 99 89 72 67 73 65 47 33 26 27 28 25 26 29 30 38 47 44 38 40 39 38 42 29 25 34 24
100 100 100 100 100 100 100 98 100 100 100 98 99 100 100 100 100 99 82 83 78 56 49 46 39 38 30 42 35 31 44 34 29 29 32 42 40 41 35 39 44 32 26 32 30
100 100 100 100 100 100 100 100 100 100 100 100 100 100 100 100 100 100 100 100 100 90 61 55 55 33 28 27 28 28 42 42 46 41 36 34 46 45 27 33 44 38 31 33 24
100 100 100 100 100 100 100 100 93 97 99 99 100 100 97 100 100 100 100 96 90 83 61 56 53 41 36 45 46 41 43 48 57 48 35 36 38 36 25 42 42 42 35 31 22
98 100 100 100 100 100 100 99 100 100 100 100 87 92 82 100 100 100 100 100 90 79 86 71 56 44 68 84 90 82 81 58 54 35 27 29 31 30 30 47 39 49 42 30 22
87 99 98 100 100 100 100 100 100 100 100 100 100 100 100 100 98 93 100 91 69 83 73 83 77 73 52 43 34 32 32 41 29 28 27 26 32 33 48 46 39 47 41 26 22
65 65 98 100 96 100 100 100 100 100 100 100 90 84 86 84 82 72 85 81 94 71 90 86 62 41 41 32 28 27 27 23 23 26 29 30 35 49 47 42 51 45 38 28 24
100 100 77 97 92 95 100 100 100 100 100 100 100 100 100 95 100 100 100 100 100 86 70 64 48 33 25 24 29 29 20 21 24 24 23 26 42 58 50 36 60 49 30 29 26
100 99 100 97 100 84 80 86 76 89 100 100 99 96 100 96 100 100 93 89 92 85 82 74 44 28 28 36 27 22 19 18 19 18 25 28 53 61 48 47 56 49 30 33 27
100 100 98 100 100 100 97 90 100 89 94 100 99 100 98 93 94 100 90 90 88 80 66 52 47 33 34 27 26 20 16 16 17 20 25 36 53 72 39 72 61 46 33 38 27
94 96 98 95 100 100 100 100 99 97 100 82 78 100 86 86 90 99 84 87 81 78 61 51 49 36 32 31 23 18 15 16 19 20 27 25 43 59 40 87 59 45 37 40 30
90 100 100 91 100 100 100 100 98 94 100 86 94 97 100 72 84 85 78 73 62 63 59 49 41 28 24 22 22 15 14 19 29 34 37 44 61 41 47 100 65 48 39 42 38
71 77 82 94 100 96 93 97 100 72 61 69 88 86 98 80 69 72 74 68 59 50 45 37 36 25 23 22 18 16 20 24 33 43 38 41 54 35 66 100 58 51 39 43 44
65 64 64 63 64 65 57 75 72 80 71 67 75 73 75 59 77 78 64 57 59 70 47 39 30 25 22 21 22 24 24 28 32 40 30 48 51 42 86 100 62 55 44 45 50
41 56 69 64 61 67 56 52 55 59 60 55 64 65 65 62 69 64 60 59 66 62 45 32 29 23 23 22 23 37 28 35 34 48 40 61 62 100 82 90 66 55 58 45 56
28 34 45 52 72 62 60 55 52 54 56 53 64 65 68 70 78 70 87 78 80 49 42 33 21 25 17 23 30 54 36 45 53 44 39 90 98 100 94 73 68 69 69 52 57
18 20 26 37 42 52 60 58 51 62 84 76 77 76 73 94 100 90 72 78 52 41 40 29 22 24 20 24 47 52 48 66 50 34 92 100 100 100 86 63 62 80 61 57 55
8 9 12 17 22 26 32 35 39 77 100 89 61 91 89 99 100 85 59 82 62 46 42 26 24 20 25 46 77 73 84 46 41 54 100 100 79 100 83 56 58 87 70 69 54
8 9 10 9 10 15 19 18 32 71 100 80 57 70 100 100 100 62 37 50 53 44 35 24 22 23 34 82 84 100 100 94 56 89 100 100 99 92 81 59 74 92 62 78 83
5 6 8 8 8 8 8 12 28 43 43 60 74 53 81 80 70 53 33 34 41 41 32 22 21 31 55 93 100 100 100 100 59 98 100 100 100 94 92 74 89 81 80 92 99
4 5 5 5 6 6 8 11 16 30 30 32 36 33 47 52 46 38 31 34 36 37 28 20 28 47 76 100 100 100 100 100 72 100 100 100 100 100 100 92 78 93 93 83 89
3 5 4 3 4 5 8 13 14 15 13 22 34 35 38 42 36 26 28 35 39 33 22 20 60 52 84 100 100 100 100 100 81 100 100 100 100 100 100 100 82 88 100 64 71
3 3 3 3 4 4 6 8 12 13 12 14 17 25 31 34 30 29 26 30 35 25 16 22 100 100 94 100 100 100 100 100 95 100 100 100 100 100 82 98 92 72 99 98 65
3 3 3 3 3 4 6 7 10 13 13 13 14 16 20 25 23 21 22 23 24 20 17 26 100 100 98 100 100 100 100 100 100 100 100 100 100 100 100 100 100 90 92 99 100
3 3 3 2 3 5 5 6 7 10 12 13 14 15 16 17 16 16 18 18 17 16 19 29 100 100 100 100 100 100 100 100 100 100 100 100 100 100 100 100 95 96 99 100 100
3 2 3 3 3 4 4 6 7 9 12 13 15 16 16 18 16 16 17 14 16 17 26 44 100 100 100 97 100 100 100 100 100 100 100 100 100 100 100 100 100 70 80 85 97
3 3 3 3 3 4 5 6 6 7 10 12 14 15 17 18 17 16 16 13 14 16 27 81 100 100 100 100 100 100 100 100 95 100 100 100 100 100 100 100 100 100 100 99 78

GFSSW_250_rhum_078.txt.gz
RH
51 80 100 100 100 100 100 95 77 82 100 100 100 100 100 98 96 95 94 94 98 99 100 100 92 87 82 76 64 66 65 51 37 32 29 30 25 27 37 31 26 30 30 29 26
43 61 90 100 100 96 99 100 100 100 100 85 93 100 100 90 93 94 100 100 99 100 100 99 95 80 85 90 72 52 44 41 40 31 29 29 35 38 32 30 38 45 27 29 31
75 69 72 99 100 100 100 100 100 96 100 100 100 100 100 100 97 91 100 98 96 100 100 98 100 100 100 100 85 54 49 40 34 31 32 49 51 63 74 65 55 48 26 27 30
90 61 96 88 96 100 100 100 88 99 100 100 100 100 85 96 100 100 100 100 100 99 98 98 86 90 82 70 60 48 43 34 31 28 28 57 72 51 44 46 43 34 27 25 32
100 96 71 69 99 99 100 100 100 100 100 100 100 100 100 100 88 83 82 77 80 81 79 90 82 69 70 61 49 46 41 30 28 27 35 60 35 41 36 31 26 25 33 32 35
100 100 100 98 99 80 98 93 100 100 100 100 100 100 100 100 100 100 100 95 88 99 95 86 90 88 82 62 48 42 35 31 32 49 56 36 37 39 27 30 26 31 37 44 35
100 100 100 100 100 85 98 74 88 92 100 100 100 100 100 100 100 100 100 100 100 100 100 100 100 93 73 57 50 51 43 37 38 53 25 33 32 22 25 29 28 38 49 44 46
93 99 100 100 100 100 100 100 85 85 94 100 100 100 100 100 100 100 100 95 88 71 81 77 75 72 78 63 60 52 37 37 38 30 32 37 21 20 23 25 32 41 47 54 47
100 100 100 100 100 100 100 100 100 86 86 88 95 100 100 100 100 100 98 97 98 100 97 100 82 81 81 62 48 50 33 25 37 43 39 21 18 19 19 19 29 54 40 61 49
100 100 100 100 96 96 98 100 100 100 100 100 100 82 93 100 100 98 100 100 100 100 99 93 83 84 71 52 49 39 34 42 52 45 21 15 17 16 15 22 31 46 52 59 48
100 100 100 100 100 87 100 100 100 100 100 100 100 100 100 96 100 100 98 100 100 100 100 83 89 74 60 46 50 46 36 38 39 36 21 17 18 19 18 21 44 40 62 53 39
30 76 75 100 93 88 79 83 86 97 94 99 94 99 100 82 92 100 85 85 75 92 96 92 77 78 63 42 40 42 33 34 35 24 16 14 19 17 21 34 50 46 52 50 41
40 54 48 54 60 71 89 93 96 91 86 99 86 98 96 100 100 100 98 92 71 68 74 79 84 67 54 44 40 30 32 34 32 18 14 15 24 19 26 40 47 61 50 47 44
34 40 36 46 41 49 60 76 90 75 64 100 100 85 93 100 99 95 100 95 80 55 66 72 67 64 55 50 36 38 36 30 23 14 12 23 30 29 40 46 70 73 49 51 44
25 28 32 39 32 28 42 46 72 69 60 81 86 99 88 99 89 82 93 85 74 69 63 58 62 57 48 39 33 48 29 26 18 15 22 27 34 50 41 88 100 100 59 59 47
20 18 21 24 27 25 30 44 53 51 62 78 82 78 84 86 84 71 75 80 71 59 58 56 53 49 41 33 42 40 27 21 17 17 30 31 43 45 45 100 100 100 69 68 58
11 11 10 11 9 14 20 27 26 28 61 71 71 60 64 65 69 67 57 52 54 60 54 54 52 47 41 40 44 32 25 19 19 21 40 39 51 46 84 94 100 100 77 70 64
12 11 11 9 8 7 8 10 14 28 78 37 54 65 85 88 82 66 57 54 77 76 67 64 66 46 40 45 41 27 22 20 28 34 60 53 66 55 90 86 100 100 83 66 75
8 7 8 6 6 7 7 7 9 16 27 36 42 73 90 98 72 71 71 69 84 73 66 74 65 48 41 42 40 26 23 40 41 42 95 71 100 100 45 96 100 100 88 76 80
6 5 4 3 4 4 5 8 13 13 13 19 30 27 40 76 64 51 65 71 89 81 84 75 59 46 53 37 34 26 40 46 45 51 99 66 100 88 54 99 100 100 92 90 85
5 6 3 3 3 4 5 7 8 11 10 11 13 21 24 58 54 57 52 54 74 95 85 60 45 56 54 37 29 31 42 61 54 83 100 68 100 69 76 82 100 100 100 100 100
5 5 3 3 3 4 6 5 6 7 8 11 11 11 17 31 34 32 41 40 60 63 71 74 64 51 38 38 30 33 96 78 56 92 100 88 100 74 54 74 100 100 96 100 100
5 4 2 3 3 4 4 5 5 5 5 9 11 11 13 16 26 24 28 32 41 48 49 49 47 49 33 33 37 58 100 97 80 95 100 100 89 97 67 72 85 100 96 84 96
3 3 3 4 3 3 3 4 5 4 4 7 10 12 12 13 12 19 25 32 35 35 34 39 45 46 35 29 51 93 99 100 76 100 100 100 100 100 99 86 58 87 100 100 81
4 4 4 4 3 3 3 3 4 5 4 7 8 10 12 13 11 12 15 18 25 31 36 39 40 40 33 29 74 99 100 100 81 84 100 100 100 100 100 96 56 64 93 100 100
4 4 4 4 4 3 3 3 3 4 5 6 7 8 12 15 12 14 14 18 24 26 29 32 32 34 24 35 90 100 100 100 82 85 100 99 90 100 100 100 100 37 56 87 100
4 4 4 3 4 4 3 3 3 4 4 6 7 8 11 14 15 16 15 15 18 18 20 26 27 29 24 60 93 99 100 100 100 100 100 86 100 100 100 100 100 100 86 67 83